Regional Weather Roundup
Issued by NWS

Home | Current Version | Previous Version | Graphics & Text | Print | Product List | Glossary Off
Versions: 1 2 3 4 5 6 7 8 9 10 11 12 13 14 15 16 17 18 19 20 21 22 23 24 25 26 27 28 29 30 31 32 33 34 35 36 37 38 39 40 41 42 43 44 45 46 47 48 49 50

000
ASUS43 KMKX 100000
RWRWI

WISCONSIN REGIONAL WEATHER ROUNDUP
NATIONAL WEATHER SERVICE MILWAUKEE/SULLIVAN WI
600 PM CST TUE FEB 09 2016

NOTE: "FAIR" INDICATES FEW OR NO CLOUDS BELOW 12,000 FEET WITH NO
SIGNIFICANT WEATHER AND/OR OBSTRUCTIONS TO VISIBILITY.

WIZ001-002-006>008-014>016-023>028-100100-
NORTHWEST WISCONSIN

CITY           SKY/WX    TMP DP  RH WIND       PRES   REMARKS
SUPERIOR ARPT  CLEAR     10  -3  56 NW7       30.14R WCI  -1
ASHLAND        CLOUDY    11   2  67 N17G23    30.08R WCI  -6
6HR MIN TEMP:  10; 6HR MAX TEMP:  13; 6HR PCP: TRACE;

HAYWARD        CLEAR      9  -3  58 NW8       30.05R WCI  -3
6HR MIN TEMP:   8; 6HR MAX TEMP:  13; 6HR PCP: TRACE;

SIREN          CLEAR     11  -6  46 NW7       30.10R WCI   1
CUMBERLAND     CLEAR     10  -6  48 NW18      30.03R WCI  -8
RICE LAKE      CLEAR     13  -5  46 NW9G18    30.06R WCI   0
CHETEK         CLEAR     10  -3  56 N7        30.04R WCI  -1
LADYSMITH      PTCLDY    10   1  64 N13       30.03R WCI  -5
6HR MIN TEMP:  10; 6HR MAX TEMP:  12;

EAU CLAIRE     NOT AVBL
MENOMONIE      CLEAR     14  -4  45 NW14      30.06R WCI  -1
6HR MIN TEMP:  13; 6HR MAX TEMP:  17;

NEW RICHMOND   CLEAR     11  -2  55 NW14      30.09R WCI  -5
OSCEOLA        CLEAR     13  -2  51 NW9G18    30.13R WCI   0
$$

WIZ003>005-009-010-017-018-100100-
NORTH CENTRAL WISCONSIN

CITY           SKY/WX    TMP DP  RH WIND       PRES   REMARKS
MANITOWISH WTR LGT SNOW   8   3  82 NW12      29.93R WCI  -7
ARBOR VITAE    CLOUDY    11   5  76 NW10G20   29.92R HAZE    WCI  -2
WOODRUFF       CLOUDY    11   5  76 NW10G20   29.92R HAZE    WCI  -2
RHINELANDER    LGT SNOW   9   2  73 NW6       29.91R WCI  -1
6HR MIN TEMP:   9; 6HR MAX TEMP:  13; 6HR PCP: TRACE;

EAGLE RIVER    CLOUDY     9   1  71 N12G22    29.89S HAZE    WCI  -6
LAND O LAKES   LGT SNOW   9   4  79 NW10G21   29.90R WCI  -5
PHILLIPS       CLOUDY     7   0  72 N8        29.96S WCI  -5
TOMAHAWK       CLOUDY     9   1  69 NW13G20   29.94R WCI  -7
MEDFORD        CLOUDY     9   1  71 N14       29.94R WCI  -7
MERRILL        CLOUDY    10   1  65 N15G23    29.94R WCI  -6
$$

WIZ029-030-035-036-043>047-100100-
CENTRAL WISCONSIN

CITY           SKY/WX    TMP DP  RH WIND       PRES   REMARKS
WAUSAU         CLOUDY    12   1  61 NW16G30   29.93R WCI  -5
6HR MIN TEMP:  12; 6HR MAX TEMP:  17; 6HR PCP: TRACE;

MOSINEE        CLOUDY    10   3  72 NW16G22   29.94R WCI  -7
MARSHFIELD     CLOUDY    11   0  61 NW18      29.95R WCI  -7
6HR MIN TEMP:  11; 6HR MAX TEMP:  14;

STEVENS POINT  CLOUDY    12   1  62 NW14      29.94R WCI  -3
WAUPACA        CLOUDY    19   6  57 NW12      29.92R WCI   6
WAUTOMA        NOT AVBL
WISC RAPIDS    CLOUDY    12   0  58 NW10      29.98R WCI  -1
6HR MIN TEMP:  12; 6HR MAX TEMP:  16;

CAMP DOUGLAS   NOT AVBL
$$

WIZ011>013-019>022-031-037>040-048>050-100100-
NORTHEAST WISCONSIN

CITY           SKY/WX    TMP DP  RH WIND       PRES   REMARKS
ANTIGO         CLOUDY    10   2  70 N20       29.88R WCI  -8
SHAWANO        CLOUDY    18   3  52 N10       29.92R WCI   6
6HR MIN TEMP:  18; 6HR MAX TEMP:  22;

OCONTO         CLOUDY    15   8  75 N8        29.90R WCI   4
STURGEON BAY   MOCLDY    12   5  73 NW16      29.89R WCI  -4
6HR MIN TEMP:  12; 6HR MAX TEMP:  18;

GREEN BAY      CLOUDY    15   8  73 N9        29.91R WCI   3
6HR MIN TEMP:  15; 6HR MAX TEMP:  20; 6HR PCP: TRACE;

MANITOWOC      NOT AVBL
APPLETON       MOCLDY    16   7  67 NW13      29.88R WCI   2
CLINTONVILLE   CLOUDY    18   3  53 N12G20    29.91R WCI   5
OSHKOSH        CLOUDY    17   7  64 N14G25    29.90R WCI   3
6HR MIN TEMP:  15; 6HR MAX TEMP:  19; 6HR PCP: TRACE;

$$

WIZ032>034-041-042-053>061-100100-
SOUTHWEST WISCONSIN

CITY           SKY/WX    TMP DP  RH WIND       PRES   REMARKS
LA CROSSE      CLEAR     11  -1  58 N9        30.05R WCI  -2
6HR MIN TEMP:  11; 6HR MAX TEMP:  15;

SPARTA         CLEAR     12   1  60 NW8       30.03R WCI   0
VIROQUA        CLEAR     10  -1  60 NW12      29.97S WCI  -5
BOSCOBEL       CLEAR     14  -3  47 N6        30.04R WCI   5
6HR MIN TEMP:  14; 6HR MAX TEMP:  18; 6HR PCP: TRACE;

PRAIRIE DU CHI CLEAR     14   1  56 NW9G17    30.04R WCI   2
PLATTEVILLE    CLEAR     13   2  61 NW15      29.98R WCI  -2
$$

WIZ056-057-062-063-064-067-068-100100-
SOUTH CENTRAL WISCONSIN

CITY           SKY/WX    TMP DP  RH WIND       PRES   REMARKS
REEDSBURG      MOCLDY    12   0  58 NW13      29.97R WCI  -3
BARABOO/DELLS  CLOUDY    13   1  58 NW13G21   29.95R WCI  -2
LONE ROCK      CLEAR     13  -2  51 NW10      30.02R WCI   0
6HR MIN TEMP:  13; 6HR MAX TEMP:  16; 6HR PCP: TRACE;

MINERAL POINT  CLEAR     14   3  62 NW9       29.96R WCI   2
MADISON        CLOUDY    14   3  61 NW13      29.95R WCI   0
6HR MIN TEMP:  13; 6HR MAX TEMP:  16; 6HR PCP: TRACE;

MIDDLETON      CLOUDY    15   4  61 NW16      29.95R WCI  -1
WATERTOWN      CLOUDY    15   7  68 NW13      29.91R WCI   2
MONROE         CLOUDY    14   5  67 NW12G17   29.94R WCI   0
JANESVILLE     LGT SNOW  16   7  67 NW12G17   29.94R WCI   3
$$

WIZ051-052-058>065-066-070>072-100100-
SOUTHEAST WISCONSIN

CITY           SKY/WX    TMP DP  RH WIND       PRES   REMARKS
MILWAUKEE      FLURRIES  17   8  67 NW15      29.90R WCI   2
6HR MIN TEMP:  17; 6HR MAX TEMP:  18; 6HR PCP: TRACE;

WAUKESHA       CLOUDY    12   7  79 W10       29.91R WCI  -1
MILWAUKEE/TIMM FLURRIES  16   9  73 W10       29.91R WCI   3
RACINE         MOCLDY    16   7  67 W9        29.92R WCI   4
6HR MIN TEMP:  16; 6HR MAX TEMP:  19; 6HR PCP: TRACE;

BURLINGTON     FLURRIES  13   8  78 NW10G16   29.91R WCI   0
KENOSHA        FLURRIES  16   8  71 NW13      29.91R WCI   2
6HR MIN TEMP:  15; 6HR MAX TEMP:  18; 6HR PCP: TRACE;

FOND DU LAC    FLURRIES  17  10  74 NW17      29.90R WCI   1
6HR MIN TEMP:  15; 6HR MAX TEMP:  18; 6HR PCP: TRACE;

SHEBOYGAN      LGT SNOW  17  11  77 NW8       29.88R WCI   7
6HR MIN TEMP:  17; 6HR MAX TEMP:  19; 6HR PCP: TRACE;

WEST BEND      FLURRIES  18  10  73 CALM      29.88R
JUNEAU         CLOUDY    15   8  72 W7G17     29.90S WCI   5
$$

LSZ147-162-100100-
LAKE SUPERIOR

STATION/POSITION TIME  TEMP    WIND        PRES    WAVE
                       AIR SEA DIR/SP/G            HT/PER
                 (UTC) (F)     (DEG/KT/KT) (MB)    (FT/S)
DEVILS ISLAND    2300   11     330/ 21/ 26 1019.9R
SAXON HARBOR     2340   13                 1017.6R
$$

LMZ867-665-643>646-100100-
LAKE MICHIGAN

STATION/POSITION TIME  TEMP    WIND        PRES    WAVE
                       AIR SEA DIR/SP/G            HT/PER
                 (UTC) (F)     (DEG/KT/KT) (MB)    (FT/S)
CHAMBERS ISLAND  2340   15     300/ 15/ 23 1011.5R
ALGOMA LAKESHORE 2241          320/ 16/ 25   N/A
KEWAUNEE LAKESHO 2300   16     350/ 17/ 24 1010.5R
SHEBOYGAN LAKESH 2300   18     320/ 15/ 17 1012.9R
PORT WASHINGTON  2300   18     290/  8/ 14 1012.9R
MILWAUKEE LAKESH 2310   18     300/ 12/ 15   N/A
KENOSHA   LAKESH 2300   17     310/ 12/ 17 1012.2R
$$

TC  - TEMPERATURE IN CELSIUS
VSB - VISIBILITY IN STATUTE MILES
WCI - WIND CHILL INDEX
HX  - HEAT INDEX





USA.gov is the U.S. government's official web portal to all federal, state and local government web resources and services.